Simultaneous Nadir Overpasses (SNOs) Predictions

Prediction of SNOs between METOP-B and TERRA Satellite Orbit:

Table of predicted SNOs for the next 14.0 days since TLE Epoch: 11/20/2016
Index Date (METOP-B) Time (METOP-B) Lat,Lon (METOP-B) SZA (METOP-B ) Date (TERRA) Time (TERRA) Lat,Lon (TERRA) SZA (TERRA ) Distance(km) Time Diff (sec)
1 11/22/2016 03:34:57 -81.29, -6.94 75.53 11/22/2016 03:35:34 -81.29, -6.84 75.50 1.63 37
2 11/22/2016 04:25:37 81.29, 160.74 104.52 11/22/2016 04:25:00 81.29, 160.93 104.53 3.13 37
3 11/24/2016 23:09:20 -81.29, 59.69 74.96 11/24/2016 23:09:50 -81.28, 59.52 74.97 3.04 30
4 11/25/2016 00:00:00 81.29,-132.67 105.09 11/24/2016 23:59:16 81.29,-132.73 105.06 1.21 44
5 11/27/2016 18:43:43 -81.29, 126.30 74.44 11/27/2016 18:44:05 -81.30, 126.18 74.44 2.05 22
6 11/27/2016 19:34:23 81.30, -66.10 105.60 11/27/2016 19:33:31 81.30, -66.09 105.58 0.61 52
7 11/30/2016 14:18:06 -81.29,-167.50 74.03 11/30/2016 14:18:20 -81.28,-167.60 74.04 1.75 14
8 11/30/2016 15:08:46 81.29, 0.05 106.01 11/30/2016 15:07:46 81.29, 0.11 105.98 1.20 60
9 12/03/2016 09:52:29 -81.29,-100.93 73.63 12/03/2016 09:52:35 -81.29,-101.07 73.64 2.32 6




NCC Satellite Simultaneous Nadir Overpasses (SNOs) Prediction Service
